| time (UTC) | temp C | wind direction | speed KPH | gust KPH | rain 1hr cm | rain 24hr cm | rain mn cm | humidity % | barometer mb |
| 20260906221524 | 21 | 84 | 6.4 | 12.9 | 0.00 | 0.00 | 0.00 | 63 | 1019.3 |
| 20260906221012 | 21 | 101 | 6.4 | 12.9 | 0.00 | 0.00 | 0.00 | 63 | 1019.3 |
| 20260906220514 | 21 | 80 | 3.2 | 11.3 | 0.00 | 0.00 | 0.00 | 64 | 1019.2 |
| 20260906220031 | 21 | 70 | 4.8 | 12.9 | 0.00 | 0.00 | 0.00 | 63 | 1019.3 |
| 20260906215514 | 21 | 53 | 3.2 | 12.9 | 0.00 | 0.00 | 0.00 | 62 | 1019.2 |
| 20260906215014 | 21 | 63 | 4.8 | 9.7 | 0.00 | 0.00 | 0.00 | 64 | 1019.2 |
| 20260906214541 | 21 | 46 | 3.2 | 9.7 | 0.00 | 0.00 | 0.00 | 63 | 1019.2 |
| 20260906214015 | 21 | 70 | 3.2 | 14.5 | 0.00 | 0.00 | 0.00 | 63 | 1019.2 |
| 20260906213518 | 21 | 60 | 4.8 | 14.5 | 0.00 | 0.00 | 0.00 | 62 | 1019.2 |
| 20260906213033 | 22 | 98 | 6.4 | 14.5 | 0.00 | 0.00 | 0.00 | 63 | 1019.3 |
| 20260906212515 | 21 | 352 | 4.8 | 14.5 | 0.00 | 0.00 | 0.00 | 63 | 1019.3 |
| 20260906212015 | 21 | 348 | 4.8 | 14.5 | 0.00 | 0.00 | 0.00 | 61 | 1019.3 |
| 20260906211534 | 22 | 60 | 4.8 | 17.7 | 0.00 | 0.00 | 0.00 | 62 | 1019.3 |
| 20260906211007 | 22 | 45 | 6.4 | 17.7 | 0.00 | 0.00 | 0.00 | 62 | 1019.3 |
| 20260906210510 | 22 | 58 | 4.8 | 17.7 | 0.00 | 0.00 | 0.00 | 61 | 1019.4 |
| 20260906210033 | 22 | 57 | 6.4 | 16.1 | 0.00 | 0.00 | 0.00 | 63 | 1019.4 |
| 20260906205513 | 22 | 10 | 3.2 | 9.7 | 0.00 | 0.00 | 0.00 | 64 | 1019.5 |
| 20260906205006 | 22 | 28 | 3.2 | 9.7 | 0.00 | 0.00 | 0.00 | 61 | 1019.5 |
| 20260906204504 | 22 | 103 | 3.2 | 8.0 | 0.00 | 0.00 | 0.00 | 66 | 1019.4 |
| 20260906204002 | 22 | 84 | 3.2 | 8.0 | 0.00 | 0.00 | 0.00 | 67 | 1019.4 |
| 20260906203506 | 22 | 310 | 3.2 | 6.4 | 0.00 | 0.00 | 0.00 | 69 | 1019.4 |
| 20260906203011 | 21 | 124 | 3.2 | 11.3 | 0.00 | 0.00 | 0.00 | 70 | 1019.4 |
| 20260906202506 | 21 | 82 | 4.8 | 17.7 | 0.00 | 0.00 | 0.00 | 70 | 1019.4 |
| 20260906202006 | 22 | 40 | 4.8 | 17.7 | 0.00 | 0.00 | 0.00 | 70 | 1019.3 |
| 20260906201529 | 21 | 338 | 4.8 | 17.7 | 0.00 | 0.00 | 0.00 | 70 | 1019.2 |
| 20260906201007 | 21 | 331 | 4.8 | 9.7 | 0.00 | 0.00 | 0.00 | 69 | 1019.3 |
| 20260906200512 | 21 | 77 | 3.2 | 14.5 | 0.00 | 0.00 | 0.00 | 69 | 1019.4 |
| 20260906200019 | 21 | 45 | 3.2 | 14.5 | 0.00 | 0.00 | 0.00 | 69 | 1019.4 |
| 20260906195508 | 21 | 83 | 6.4 | 14.5 | 0.00 | 0.00 | 0.00 | 71 | 1019.4 |
| 20260906195008 | 21 | 89 | 6.4 | 19.3 | 0.00 | 0.00 | 0.00 | 69 | 1019.4 |
| 20260906194518 | 22 | 69 | 6.4 | 19.3 | 0.00 | 0.00 | 0.00 | 69 | 1019.4 |
| 20260906194005 | 22 | 41 | 4.8 | 22.5 | 0.00 | 0.00 | 0.00 | 70 | 1019.2 |
| 20260906193504 | 22 | 30 | 6.4 | 22.5 | 0.00 | 0.00 | 0.00 | 66 | 1019.3 |
| 20260906193007 | 22 | 356 | 4.8 | 12.9 | 0.00 | 0.00 | 0.00 | 69 | 1019.3 |
| 20260906192502 | 22 | 89 | 4.8 | 14.5 | 0.00 | 0.00 | 0.00 | 69 | 1019.2 |
| 20260906192008 | 22 | 67 | 6.4 | 16.1 | 0.00 | 0.00 | 0.00 | 67 | 1019.3 |
| 20260906191509 | 22 | 345 | 4.8 | 16.1 | 0.00 | 0.00 | 0.00 | 67 | 1019.4 |
| 20260906191007 | 22 | 101 | 6.4 | 16.1 | 0.00 | 0.00 | 0.00 | 66 | 1019.3 |
| 20260906190504 | 22 | 93 | 4.8 | 9.7 | 0.00 | 0.00 | 0.00 | 67 | 1019.3 |
| 20260906190026 | 22 | 353 | 6.4 | 12.9 | 0.00 | 0.00 | 0.00 | 67 | 1019.3 |
| 20260906185509 | 23 | 46 | 6.4 | 12.9 | 0.00 | 0.00 | 0.00 | 66 | 1019.4 |
| 20260906185009 | 23 | 23 | 6.4 | 12.9 | 0.00 | 0.00 | 0.00 | 66 | 1019.3 |
| 20260906184523 | 23 | 339 | 3.2 | 9.7 | 0.00 | 0.00 | 0.00 | 68 | 1019.3 |
| 20260906184009 | 22 | 43 | 4.8 | 14.5 | 0.00 | 0.00 | 0.00 | 68 | 1019.3 |
| 20260906183509 | 22 | 93 | 6.4 | 14.5 | 0.00 | 0.00 | 0.00 | 67 | 1019.4 |
| 20260906183024 | 22 | 9 | 3.2 | 16.1 | 0.00 | 0.00 | 0.00 | 68 | 1019.4 |
| 20260906182503 | 22 | 49 | 4.8 | 16.1 | 0.00 | 0.00 | 0.00 | 66 | 1019.4 |
| 20260906182007 | 22 | 338 | 1.6 | 12.9 | 0.00 | 0.00 | 0.00 | 68 | 1019.4 |
| 20260906181520 | 23 | 26 | 6.4 | 12.9 | 0.00 | 0.00 | 0.00 | 67 | 1019.4 |
| 20260906181006 | 23 | 96 | 4.8 | 19.3 | 0.00 | 0.00 | 0.00 | 67 | 1019.4 |
| 20260906180504 | 22 | 39 | 3.2 | 19.3 | 0.00 | 0.00 | 0.00 | 69 | 1019.5 |
| 20260906180012 | 22 | 69 | 3.2 | 14.5 | 0.00 | 0.00 | 0.00 | 70 | 1019.4 |
| 20260906175506 | 22 | 321 | 4.8 | 14.5 | 0.00 | 0.00 | 0.00 | 68 | 1019.4 |
| 20260906175007 | 22 | 45 | 4.8 | 20.9 | 0.00 | 0.00 | 0.00 | 69 | 1019.4 |
| 20260906174519 | 22 | 148 | 6.4 | 20.9 | 0.00 | 0.00 | 0.00 | 68 | 1019.4 |
| 20260906174012 | 22 | 108 | 8.0 | 19.3 | 0.00 | 0.00 | 0.00 | 69 | 1019.5 |
| 20260906173511 | 22 | 140 | 8.0 | 17.7 | 0.00 | 0.00 | 0.00 | 68 | 1019.5 |
| 20260906173025 | 22 | 328 | 4.8 | 12.9 | 0.00 | 0.00 | 0.00 | 69 | 1019.4 |
| 20260906172509 | 22 | 108 | 4.8 | 11.3 | 0.00 | 0.00 | 0.00 | 69 | 1019.5 |
| 20260906172010 | 22 | 136 | 4.8 | 9.7 | 0.00 | 0.00 | 0.00 | 70 | 1019.4 |
| 20260906171527 | 22 | 325 | 3.2 | 14.5 | 0.00 | 0.00 | 0.00 | 71 | 1019.5 |
| 20260906171006 | 22 | 18 | 6.4 | 14.5 | 0.00 | 0.00 | 0.00 | 70 | 1019.5 |
| 20260906170504 | 22 | 60 | 3.2 | 12.9 | 0.00 | 0.00 | 0.00 | 71 | 1019.5 |
| 20260906170010 | 22 | 70 | 6.4 | 19.3 | 0.00 | 0.00 | 0.00 | 71 | 1019.5 |
| 20260906165506 | 22 | 91 | 9.7 | 19.3 | 0.00 | 0.00 | 0.00 | 73 | 1019.5 |
| 20260906165008 | 22 | 60 | 4.8 | 22.5 | 0.00 | 0.00 | 0.00 | 71 | 1019.5 |
| 20260906164521 | 22 | 59 | 4.8 | 22.5 | 0.00 | 0.00 | 0.00 | 71 | 1019.6 |
| 20260906164008 | 22 | 136 | 3.2 | 11.3 | 0.00 | 0.00 | 0.00 | 72 | 1019.6 |
| 20260906163511 | 22 | 106 | 4.8 | 12.9 | 0.00 | 0.00 | 0.00 | 72 | 1019.6 |
| 20260906163040 | 21 | 10 | 4.8 | 12.9 | 0.00 | 0.00 | 0.00 | 73 | 1019.6 |
| 20260906162516 | 21 | 44 | 4.8 | 11.3 | 0.00 | 0.00 | 0.00 | 73 | 1019.6 |
| 20260906162015 | 21 | 95 | 4.8 | 8.0 | 0.00 | 0.00 | 0.00 | 75 | 1019.6 |
| 20260906161530 | 21 | 338 | 4.8 | 11.3 | 0.00 | 0.00 | 0.00 | 74 | 1019.6 |
| 20260906161018 | 22 | 18 | 3.2 | 14.5 | 0.00 | 0.00 | 0.00 | 73 | 1019.6 |
| 20260906160512 | 22 | 60 | 6.4 | 19.3 | 0.00 | 0.00 | 0.00 | 75 | 1019.7 |
| 20260906160011 | 21 | 1 | 8.0 | 19.3 | 0.00 | 0.00 | 0.00 | 73 | 1019.7 |
| 20260906155504 | 21 | 53 | 4.8 | 11.3 | 0.00 | 0.00 | 0.00 | 75 | 1019.6 |
| 20260906155003 | 21 | 64 | 3.2 | 16.1 | 0.00 | 0.00 | 0.00 | 75 | 1019.6 |
| 20260906154514 | 21 | 49 | 4.8 | 17.7 | 0.00 | 0.00 | 0.00 | 73 | 1019.7 |
| 20260906154008 | 22 | 72 | 6.4 | 17.7 | 0.00 | 0.00 | 0.00 | 71 | 1019.6 |
| 20260906153507 | 22 | 356 | 4.8 | 16.1 | 0.00 | 0.00 | 0.00 | 73 | 1019.6 |
| 20260906153020 | 22 | 86 | 3.2 | 12.9 | 0.00 | 0.00 | 0.00 | 72 | 1019.5 |
| 20260906152508 | 22 | 6 | 3.2 | 11.3 | 0.00 | 0.00 | 0.00 | 73 | 1019.5 |
| 20260906152012 | 22 | 55 | 3.2 | 9.7 | 0.00 | 0.00 | 0.00 | 75 | 1019.6 |
| 20260906151525 | 22 | 27 | 3.2 | 12.9 | 0.00 | 0.00 | 0.00 | 75 | 1019.6 |
| 20260906151020 | 21 | 347 | 1.6 | 14.5 | 0.00 | 0.00 | 0.00 | 75 | 1019.5 |
| 20260906150512 | 22 | 336 | 6.4 | 14.5 | 0.00 | 0.00 | 0.00 | 76 | 1019.5 |
| 20260906150029 | 21 | 81 | 1.6 | 20.9 | 0.00 | 0.00 | 0.00 | 76 | 1019.4 |
| 20260906145513 | 21 | 76 | 1.6 | 20.9 | 0.00 | 0.00 | 0.00 | 76 | 1019.3 |
| 20260906145012 | 21 | 65 | 6.4 | 14.5 | 0.00 | 0.00 | 0.00 | 77 | 1019.3 |
| 20260906144510 | 21 | 358 | 4.8 | 12.9 | 0.00 | 0.00 | 0.00 | 78 | 1019.3 |
| 20260906144004 | 20 | 135 | 3.2 | 11.3 | 0.00 | 0.00 | 0.00 | 79 | 1019.3 |
| 20260906143506 | 20 | 354 | 3.2 | 11.3 | 0.00 | 0.00 | 0.00 | 82 | 1019.2 |
| 20260906143016 | 20 | 11 | 4.8 | 12.9 | 0.00 | 0.00 | 0.00 | 82 | 1019.3 |
| 20260906142510 | 20 | 13 | 4.8 | 12.9 | 0.00 | 0.00 | 0.00 | 81 | 1019.3 |
| 20260906142010 | 20 | 328 | 3.2 | 9.7 | 0.00 | 0.00 | 0.00 | 80 | 1019.2 |
| 20260906141523 | 20 | 349 | 3.2 | 9.7 | 0.00 | 0.00 | 0.00 | 81 | 1019.2 |
| 20260906141012 | 20 | 325 | 4.8 | 9.7 | 0.00 | 0.00 | 0.00 | 81 | 1019.1 |
| 20260906140517 | 20 | 131 | 3.2 | 17.7 | 0.00 | 0.00 | 0.00 | 83 | 1019.1 |
| 20260906140010 | 19 | 122 | 4.8 | 17.7 | 0.00 | 0.00 | 0.00 | 83 | 1019.2 |
| 20260906135504 | 19 | 27 | 4.8 | 8.0 | 0.00 | 0.00 | 0.00 | 83 | 1019.2 |
| 20260906135003 | 20 | 25 | 3.2 | 11.3 | 0.00 | 0.00 | 0.00 | 83 | 1019.2 |
| 20260906134509 | 19 | 341 | 1.6 | 11.3 | 0.00 | 0.00 | 0.00 | 85 | 1019.2 |
| 20260906134007 | 19 | 106 | 3.2 | 9.7 | 0.00 | 0.00 | 0.00 | 85 | 1019.2 |
| 20260906133510 | 19 | 79 | 3.2 | 12.9 | 0.00 | 0.00 | 0.00 | 84 | 1019.2 |
| 20260906133012 | 20 | 51 | 1.6 | 12.9 | 0.00 | 0.00 | 0.00 | 85 | 1019.2 |
| 20260906132505 | 19 | 105 | 3.2 | 11.3 | 0.00 | 0.00 | 0.00 | 86 | 1019.1 |
| 20260906132007 | 18 | 142 | 4.8 | 17.7 | 0.00 | 0.00 | 0.00 | 87 | 1019.1 |
| 20260906131518 | 18 | 113 | 4.8 | 17.7 | 0.00 | 0.00 | 0.00 | 88 | 1019.1 |
| 20260906131012 | 18 | 56 | 6.4 | 14.5 | 0.00 | 0.00 | 0.00 | 88 | 1019.1 |
| 20260906130512 | 18 | 27 | 3.2 | 8.0 | 0.00 | 0.00 | 0.00 | 88 | 1019.0 |
| 20260906130028 | 18 | 80 | 4.8 | 8.0 | 0.00 | 0.00 | 0.00 | 90 | 1019.0 |
| 20260906125512 | 18 | 64 | 1.6 | 6.4 | 0.00 | 0.00 | 0.00 | 89 | 1019.0 |
| 20260906125015 | 17 | 144 | 0.0 | 1.6 | 0.00 | 0.00 | 0.00 | 90 | 1019.0 |
| 20260906124506 | 17 | 153 | 0.0 | 1.6 | 0.00 | 0.00 | 0.00 | 91 | 1018.9 |
| 20260906124009 | 17 | 141 | 0.0 | 3.2 | 0.00 | 0.00 | 0.00 | 90 | 1018.8 |
| 20260906123504 | 17 | 155 | 0.0 | 3.2 | 0.00 | 0.00 | 0.00 | 90 | 1018.9 |
| 20260906123029 | 17 | 104 | 0.0 | 1.6 | 0.00 | 0.00 | 0.00 | 89 | 1018.8 |
| 20260906122506 | 17 | 104 | 0.0 | 1.6 | 0.00 | 0.00 | 0.00 | 90 | 1018.8 |
| 20260906122006 | 17 | 102 | 0.0 | 0.0 | 0.00 | 0.00 | 0.00 | 90 | 1018.7 |
| 20260906121515 | 17 | 102 | 0.0 | 0.0 | 0.00 | 0.00 | 0.00 | 94 | 1018.6 |
| 20260906121009 | 16 | 102 | 0.0 | 0.0 | 0.00 | 0.00 | 0.00 | 97 | 1018.6 |
| 20260906120508 | 16 | 102 | 0.0 | 0.0 | 0.00 | 0.00 | 0.00 | 97 | 1018.6 |
| 20260906120024 | 15 | 74 | 0.0 | 0.0 | 0.00 | 0.00 | 0.00 | 97 | 1018.5 |
| 20260906115512 | 15 | 74 | 0.0 | 0.0 | 0.00 | 0.00 | 0.00 | 97 | 1018.3 |
| 20260906115013 | 14 | 74 | 0.0 | 0.0 | 0.00 | 0.00 | 0.00 | 97 | 1018.4 |
| 20260906114533 | 14 | 74 | 0.0 | 0.0 | 0.00 | 0.00 | 0.00 | 97 | 1018.4 |
| 20260906114018 | 13 | 74 | 0.0 | 0.0 | 0.00 | 0.00 | 0.00 | 97 | 1018.4 |
| 20260906113516 | 13 | 74 | 0.0 | 0.0 | 0.00 | 0.00 | 0.00 | 96 | 1018.3 |
| 20260906113012 | 13 | 74 | 0.0 | 0.0 | 0.00 | 0.00 | 0.00 | 96 | 1018.3 |
| 20260906112506 | 13 | 74 | 0.0 | 0.0 | 0.00 | 0.00 | 0.00 | 96 | 1018.2 |
| 20260906112006 | 13 | 74 | 0.0 | 0.0 | 0.00 | 0.00 | 0.00 | 96 | 1018.2 |
| 20260906111510 | 13 | 74 | 0.0 | 0.0 | 0.00 | 0.00 | 0.00 | 96 | 1018.1 |
| 20260906111010 | 13 | 74 | 0.0 | 0.0 | 0.00 | 0.00 | 0.00 | 96 | 1018.1 |
| 20260906110509 | 13 | 74 | 0.0 | 0.0 | 0.00 | 0.00 | 0.00 | 96 | 1018.0 |
| 20260906110017 | 13 | 74 | 0.0 | 0.0 | 0.00 | 0.00 | 0.00 | 96 | 1017.9 |
| 20260906105510 | 13 | 74 | 0.0 | 1.6 | 0.00 | 0.00 | 0.00 | 96 | 1017.9 |
| 20260906105012 | 13 | 74 | 0.0 | 1.6 | 0.00 | 0.00 | 0.00 | 96 | 1017.8 |
| 20260906104527 | 13 | 53 | 0.0 | 1.6 | 0.00 | 0.00 | 0.00 | 96 | 1017.7 |
| 20260906104014 | 13 | 53 | 0.0 | 1.6 | 0.00 | 0.00 | 0.00 | 96 | 1017.7 |
| 20260906103517 | 13 | 52 | 0.0 | 0.0 | 0.00 | 0.00 | 0.00 | 96 | 1017.7 |
| 20260906103029 | 13 | 52 | 0.0 | 0.0 | 0.00 | 0.00 | 0.00 | 96 | 1017.6 |
| 20260906102516 | 13 | 52 | 0.0 | 0.0 | 0.00 | 0.00 | 0.00 | 96 | 1017.6 |
| 20260906102018 | 13 | 52 | 0.0 | 0.0 | 0.00 | 0.00 | 0.00 | 96 | 1017.6 |
| 20260906101508 | 13 | 52 | 0.0 | 0.0 | 0.00 | 0.00 | 0.00 | 96 | 1017.6 |
| 20260906101009 | 13 | 52 | 0.0 | 0.0 | 0.00 | 0.00 | 0.00 | 96 | 1017.6 |
| 20260906100512 | 13 | 52 | 0.0 | 0.0 | 0.00 | 0.00 | 0.00 | 96 | 1017.5 |
| 20260906100012 | 13 | 52 | 0.0 | 0.0 | 0.00 | 0.00 | 0.00 | 95 | 1017.5 |
| 20260906095509 | 13 | 52 | 0.0 | 0.0 | 0.00 | 0.00 | 0.00 | 95 | 1017.5 |
| 20260906095010 | 13 | 52 | 0.0 | 0.0 | 0.00 | 0.00 | 0.00 | 95 | 1017.5 |
| 20260906094524 | 14 | 52 | 0.0 | 0.0 | 0.00 | 0.00 | 0.00 | 95 | 1017.5 |
| 20260906094014 | 14 | 52 | 0.0 | 0.0 | 0.00 | 0.00 | 0.00 | 95 | 1017.5 |
| 20260906093514 | 14 | 52 | 0.0 | 0.0 | 0.00 | 0.00 | 0.00 | 95 | 1017.4 |
| 20260906093044 | 14 | 52 | 0.0 | 0.0 | 0.00 | 0.00 | 0.00 | 95 | 1017.3 |
| 20260906092515 | 14 | 52 | 0.0 | 0.0 | 0.00 | 0.00 | 0.00 | 95 | 1017.2 |
| 20260906092021 | 14 | 52 | 0.0 | 0.0 | 0.00 | 0.00 | 0.00 | 95 | 1017.2 |
| 20260906091529 | 14 | 52 | 0.0 | 0.0 | 0.00 | 0.00 | 0.00 | 95 | 1017.1 |
| 20260906091016 | 14 | 52 | 0.0 | 1.6 | 0.00 | 0.00 | 0.00 | 95 | 1017.0 |
| 20260906090504 | 14 | 52 | 0.0 | 1.6 | 0.00 | 0.00 | 0.00 | 95 | 1017.0 |
| 20260906090012 | 14 | 52 | 0.0 | 0.0 | 0.00 | 0.00 | 0.00 | 95 | 1017.0 |
| 20260906085506 | 14 | 52 | 0.0 | 1.6 | 0.00 | 0.00 | 0.00 | 94 | 1017.0 |
| 20260906085008 | 15 | 52 | 0.0 | 1.6 | 0.00 | 0.00 | 0.00 | 95 | 1016.9 |
| 20260906084517 | 15 | 52 | 0.0 | 0.0 | 0.00 | 0.00 | 0.00 | 94 | 1016.8 |
| 20260906084011 | 15 | 52 | 0.0 | 0.0 | 0.00 | 0.00 | 0.00 | 94 | 1016.7 |
| 20260906083512 | 15 | 52 | 0.0 | 0.0 | 0.00 | 0.00 | 0.00 | 94 | 1016.6 |
| 20260906083025 | 15 | 52 | 0.0 | 0.0 | 0.00 | 0.00 | 0.00 | 94 | 1016.5 |
| 20260906082513 | 15 | 52 | 0.0 | 0.0 | 0.00 | 0.00 | 0.00 | 94 | 1016.5 |
| 20260906082015 | 15 | 52 | 0.0 | 1.6 | 0.00 | 0.00 | 0.00 | 94 | 1016.4 |
| 20260906081544 | 15 | 52 | 0.0 | 1.6 | 0.00 | 0.00 | 0.00 | 94 | 1016.4 |
| 20260906081017 | 15 | 55 | 0.0 | 0.0 | 0.00 | 0.00 | 0.00 | 94 | 1016.4 |
| 20260906080516 | 15 | 55 | 0.0 | 0.0 | 0.00 | 0.00 | 0.00 | 94 | 1016.4 |
| 20260906080032 | 15 | 55 | 0.0 | 0.0 | 0.00 | 0.00 | 0.00 | 93 | 1016.3 |
| 20260906075514 | 15 | 55 | 0.0 | 0.0 | 0.00 | 0.00 | 0.00 | 93 | 1016.3 |
| 20260906075004 | 15 | 55 | 0.0 | 0.0 | 0.00 | 0.00 | 0.00 | 93 | 1016.4 |
| 20260906074512 | 15 | 55 | 0.0 | 0.0 | 0.00 | 0.00 | 0.00 | 92 | 1016.3 |
| 20260906074013 | 15 | 55 | 0.0 | 0.0 | 0.00 | 0.00 | 0.00 | 92 | 1016.2 |
| 20260906073508 | 16 | 55 | 0.0 | 0.0 | 0.00 | 0.00 | 0.00 | 92 | 1016.3 |
| 20260906073036 | 16 | 54 | 0.0 | 0.0 | 0.00 | 0.00 | 0.00 | 91 | 1016.3 |
| 20260906072512 | 16 | 55 | 0.0 | 0.0 | 0.00 | 0.00 | 0.00 | 91 | 1016.3 |
| 20260906072014 | 16 | 55 | 0.0 | 1.6 | 0.00 | 0.00 | 0.00 | 91 | 1016.3 |
| 20260906071529 | 16 | 54 | 0.0 | 1.6 | 0.00 | 0.00 | 0.00 | 91 | 1016.3 |
| 20260906071014 | 16 | 55 | 0.0 | 1.6 | 0.00 | 0.00 | 0.00 | 91 | 1016.4 |
| 20260906070514 | 16 | 54 | 0.0 | 0.0 | 0.00 | 0.00 | 0.00 | 90 | 1016.3 |
| 20260906070039 | 16 | 55 | 0.0 | 3.2 | 0.00 | 0.00 | 0.00 | 90 | 1016.4 |
| 20260906065516 | 16 | 54 | 0.0 | 3.2 | 0.00 | 0.00 | 0.00 | 90 | 1016.5 |
| 20260906065019 | 16 | 63 | 0.0 | 3.2 | 0.00 | 0.00 | 0.00 | 90 | 1016.5 |
| 20260906064533 | 16 | 146 | 0.0 | 0.0 | 0.00 | 0.00 | 0.00 | 90 | 1016.5 |
| 20260906064016 | 16 | 147 | 0.0 | 0.0 | 0.00 | 0.00 | 0.00 | 90 | 1016.5 |
| 20260906063509 | 16 | 148 | 0.0 | 0.0 | 0.00 | 0.00 | 0.00 | 90 | 1016.4 |
| 20260906063014 | 16 | 147 | 0.0 | 0.0 | 0.00 | 0.00 | 0.00 | 90 | 1016.4 |
| 20260906062510 | 16 | 148 | 0.0 | 0.0 | 0.00 | 0.00 | 0.00 | 90 | 1016.5 |
| 20260906062010 | 16 | 148 | 0.0 | 0.0 | 0.00 | 0.00 | 0.00 | 90 | 1016.5 |
| 20260906061524 | 16 | 148 | 0.0 | 0.0 | 0.00 | 0.00 | 0.00 | 89 | 1016.5 |
| 20260906061013 | 16 | 147 | 0.0 | 0.0 | 0.00 | 0.00 | 0.00 | 89 | 1016.6 |
| 20260906060514 | 16 | 147 | 0.0 | 0.0 | 0.00 | 0.00 | 0.00 | 89 | 1016.4 |
| 20260906060030 | 16 | 147 | 0.0 | 0.0 | 0.00 | 0.00 | 0.00 | 89 | 1016.4 |
| 20260906055515 | 16 | 148 | 0.0 | 0.0 | 0.00 | 0.00 | 0.00 | 89 | 1016.4 |
| 20260906055015 | 16 | 147 | 0.0 | 0.0 | 0.00 | 0.00 | 0.00 | 89 | 1016.6 |
| 20260906054532 | 16 | 148 | 0.0 | 1.6 | 0.00 | 0.00 | 0.00 | 89 | 1016.5 |
| 20260906054014 | 17 | 148 | 0.0 | 1.6 | 0.00 | 0.00 | 0.00 | 89 | 1016.5 |
| 20260906053519 | 17 | 146 | 0.0 | 1.6 | 0.00 | 0.00 | 0.00 | 89 | 1016.5 |
| 20260906053038 | 17 | 152 | 0.0 | 1.6 | 0.00 | 0.00 | 0.00 | 88 | 1016.5 |
| 20260906052516 | 17 | 136 | 0.0 | 1.6 | 0.00 | 0.00 | 0.00 | 88 | 1016.5 |
| 20260906052010 | 17 | 132 | 0.0 | 1.6 | 0.00 | 0.00 | 0.00 | 89 | 1016.5 |
| 20260906051521 | 17 | 131 | 0.0 | 0.0 | 0.00 | 0.00 | 0.00 | 89 | 1016.4 |
| 20260906051015 | 17 | 131 | 0.0 | 0.0 | 0.00 | 0.00 | 0.00 | 89 | 1016.4 |
| 20260906050502 | 17 | 131 | 0.0 | 0.0 | 0.00 | 0.00 | 0.00 | 88 | 1016.5 |
| 20260906050006 | 17 | 131 | 0.0 | 0.0 | 0.00 | 0.00 | 0.00 | 88 | 1016.3 |
| 20260906045505 | 17 | 131 | 0.0 | 0.0 | 0.00 | 0.00 | 0.00 | 88 | 1016.4 |
| 20260906045003 | 17 | 131 | 0.0 | 0.0 | 0.00 | 0.00 | 0.00 | 87 | 1016.4 |
| 20260906044509 | 17 | 131 | 0.0 | 0.0 | 0.00 | 0.00 | 0.00 | 87 | 1016.3 |
| 20260906044004 | 17 | 131 | 0.0 | 0.0 | 0.00 | 0.00 | 0.00 | 87 | 1016.4 |
| 20260906043504 | 17 | 131 | 0.0 | 0.0 | 0.00 | 0.00 | 0.00 | 87 | 1016.4 |
| 20260906043010 | 17 | 131 | 0.0 | 1.6 | 0.00 | 0.00 | 0.00 | 87 | 1016.3 |
| 20260906042506 | 17 | 132 | 0.0 | 1.6 | 0.00 | 0.00 | 0.00 | 87 | 1016.4 |
| 20260906042008 | 17 | 132 | 0.0 | 1.6 | 0.00 | 0.00 | 0.00 | 87 | 1016.4 |
| 20260906041518 | 17 | 130 | 0.0 | 1.6 | 0.00 | 0.00 | 0.00 | 87 | 1016.4 |
| 20260906041016 | 17 | 63 | 0.0 | 1.6 | 0.00 | 0.00 | 0.00 | 87 | 1016.3 |
| 20260906040512 | 17 | 64 | 0.0 | 1.6 | 0.00 | 0.00 | 0.00 | 87 | 1016.3 |
| 20260906040027 | 17 | 60 | 0.0 | 0.0 | 0.00 | 0.00 | 0.00 | 86 | 1016.3 |
| 20260906035512 | 17 | 60 | 0.0 | 0.0 | 0.00 | 0.00 | 0.00 | 86 | 1016.3 |
| 20260906035003 | 17 | 60 | 0.0 | 0.0 | 0.00 | 0.00 | 0.00 | 86 | 1016.2 |
| 20260906034505 | 17 | 60 | 0.0 | 0.0 | 0.00 | 0.00 | 0.00 | 86 | 1016.3 |
| 20260906034004 | 17 | 60 | 0.0 | 0.0 | 0.00 | 0.00 | 0.00 | 86 | 1016.3 |
| 20260906033504 | 17 | 60 | 0.0 | 0.0 | 0.00 | 0.00 | 0.00 | 85 | 1016.2 |
| 20260906033006 | 17 | 60 | 0.0 | 0.0 | 0.00 | 0.00 | 0.00 | 86 | 1016.2 |
| 20260906032505 | 17 | 60 | 0.0 | 0.0 | 0.00 | 0.00 | 0.00 | 85 | 1016.2 |
| 20260906032006 | 17 | 60 | 0.0 | 0.0 | 0.00 | 0.00 | 0.00 | 85 | 1016.1 |
| 20260906031513 | 17 | 60 | 0.0 | 0.0 | 0.00 | 0.00 | 0.00 | 85 | 1016.1 |
| 20260906031014 | 17 | 60 | 0.0 | 0.0 | 0.00 | 0.00 | 0.00 | 86 | 1016.1 |
| 20260906030510 | 17 | 60 | 0.0 | 0.0 | 0.00 | 0.00 | 0.00 | 85 | 1016.0 |
| 20260906030024 | 17 | 60 | 0.0 | 0.0 | 0.00 | 0.00 | 0.00 | 85 | 1016.0 |
| 20260906025512 | 17 | 60 | 0.0 | 0.0 | 0.00 | 0.00 | 0.00 | 85 | 1016.0 |
| 20260906025012 | 17 | 60 | 0.0 | 0.0 | 0.00 | 0.00 | 0.00 | 85 | 1016.0 |
| 20260906024528 | 17 | 60 | 0.0 | 0.0 | 0.00 | 0.00 | 0.00 | 85 | 1016.1 |
| 20260906024011 | 17 | 60 | 0.0 | 0.0 | 0.00 | 0.00 | 0.00 | 85 | 1016.1 |
| 20260906023504 | 17 | 60 | 0.0 | 0.0 | 0.00 | 0.00 | 0.00 | 85 | 1016.1 |
| 20260906023007 | 17 | 60 | 0.0 | 0.0 | 0.00 | 0.00 | 0.00 | 85 | 1016.0 |
| 20260906022503 | 17 | 60 | 0.0 | 0.0 | 0.00 | 0.00 | 0.00 | 85 | 1016.1 |
| 20260906022003 | 17 | 60 | 0.0 | 0.0 | 0.00 | 0.00 | 0.00 | 85 | 1016.0 |
| 20260906021510 | 17 | 60 | 0.0 | 0.0 | 0.00 | 0.00 | 0.00 | 85 | 1016.1 |
| 20260906021004 | 17 | 60 | 0.0 | 0.0 | 0.00 | 0.00 | 0.00 | 86 | 1016.0 |
| 20260906020508 | 17 | 60 | 0.0 | 0.0 | 0.00 | 0.00 | 0.00 | 85 | 1016.0 |
| 20260906020016 | 17 | 60 | 0.0 | 0.0 | 0.00 | 0.00 | 0.00 | 86 | 1015.9 |
| 20260906015508 | 17 | 60 | 0.0 | 0.0 | 0.00 | 0.00 | 0.00 | 85 | 1016.0 |
| 20260906015010 | 17 | 60 | 0.0 | 0.0 | 0.00 | 0.00 | 0.00 | 85 | 1015.9 |
| 20260906014533 | 17 | 60 | 0.0 | 0.0 | 0.00 | 0.00 | 0.00 | 84 | 1015.9 |
| 20260906014013 | 17 | 60 | 0.0 | 0.0 | 0.00 | 0.00 | 0.00 | 83 | 1015.9 |
| 20260906013512 | 17 | 60 | 0.0 | 0.0 | 0.00 | 0.00 | 0.00 | 83 | 1015.9 |
| 20260906013029 | 17 | 60 | 0.0 | 0.0 | 0.00 | 0.00 | 0.00 | 82 | 1015.9 |
| 20260906012502 | 17 | 60 | 0.0 | 0.0 | 0.00 | 0.00 | 0.00 | 81 | 1015.8 |
| 20260906012003 | 17 | 60 | 0.0 | 0.0 | 0.00 | 0.00 | 0.00 | 81 | 1015.8 |
| 20260906011508 | 18 | 60 | 0.0 | 0.0 | 0.00 | 0.00 | 0.00 | 81 | 1015.8 |
| 20260906011005 | 18 | 60 | 0.0 | 0.0 | 0.00 | 0.00 | 0.00 | 80 | 1015.7 |
| 20260906010504 | 18 | 60 | 0.0 | 0.0 | 0.00 | 0.00 | 0.00 | 79 | 1015.7 |
| 20260906010014 | 18 | 60 | 0.0 | 0.0 | 0.00 | 0.00 | 0.00 | 78 | 1015.7 |
| 20260906005507 | 18 | 60 | 0.0 | 0.0 | 0.00 | 0.00 | 0.00 | 78 | 1015.5 |
| 20260906005009 | 18 | 60 | 0.0 | 0.0 | 0.00 | 0.00 | 0.00 | 79 | 1015.5 |
| 20260906004520 | 18 | 60 | 0.0 | 0.0 | 0.00 | 0.00 | 0.00 | 79 | 1015.5 |
| 20260906004016 | 18 | 60 | 0.0 | 0.0 | 0.00 | 0.00 | 0.00 | 80 | 1015.5 |
| 20260906003510 | 18 | 60 | 0.0 | 0.0 | 0.00 | 0.00 | 0.00 | 79 | 1015.4 |
| 20260906003027 | 18 | 60 | 0.0 | 0.0 | 0.00 | 0.00 | 0.00 | 78 | 1015.5 |
| 20260906002514 | 18 | 60 | 0.0 | 0.0 | 0.00 | 0.00 | 0.00 | 78 | 1015.4 |
| 20260906002012 | 18 | 60 | 0.0 | 0.0 | 0.00 | 0.00 | 0.00 | 77 | 1015.4 |
| 20260906001531 | 18 | 60 | 0.0 | 0.0 | 0.00 | 0.00 | 0.00 | 76 | 1015.4 |
| 20260906001003 | 19 | 60 | 0.0 | 0.0 | 0.00 | 0.00 | 0.00 | 75 | 1015.3 |
| 20260906000504 | 19 | 60 | 0.0 | 0.0 | 0.00 | 0.00 | 0.00 | 74 | 1015.2 |
| 20260906000009 | 19 | 60 | 0.0 | 0.0 | 0.00 | 0.00 | 0.00 | 73 | 1015.2 |
| 20260905235503 | 20 | 60 | 0.0 | 0.0 | 0.00 | 0.00 | 0.00 | 72 | 1015.1 |
| 20260905235009 | 20 | 60 | 0.0 | 0.0 | 0.00 | 0.00 | 0.00 | 71 | 1015.1 |
| 20260905234517 | 20 | 60 | 0.0 | 0.0 | 0.00 | 0.00 | 0.00 | 71 | 1015.2 |
| 20260905234008 | 20 | 60 | 0.0 | 0.0 | 0.00 | 0.00 | 0.00 | 70 | 1015.3 |
| 20260905233510 | 20 | 60 | 0.0 | 3.2 | 0.00 | 0.00 | 0.00 | 69 | 1015.3 |
| 20260905233023 | 21 | 60 | 0.0 | 3.2 | 0.00 | 0.00 | 0.00 | 68 | 1015.3 |
| 20260905232511 | 21 | 59 | 0.0 | 3.2 | 0.00 | 0.00 | 0.00 | 67 | 1015.4 |
| 20260905232013 | 21 | 96 | 0.0 | 3.2 | 0.00 | 0.00 | 0.00 | 67 | 1015.3 |
| 20260905231530 | 21 | 58 | 0.0 | 6.4 | 0.00 | 0.00 | 0.00 | 66 | 1015.2 |
| 20260905231017 | 21 | 60 | 3.2 | 6.4 | 0.00 | 0.00 | 0.00 | 64 | 1015.2 |
| 20260905230515 | 21 | 46 | 0.0 | 3.2 | 0.00 | 0.00 | 0.00 | 64 | 1015.3 |
| 20260905230036 | 22 | 47 | 0.0 | 3.2 | 0.00 | 0.00 | 0.00 | 64 | 1015.3 |
| 20260905225502 | 22 | 72 | 0.0 | 6.4 | 0.00 | 0.00 | 0.00 | 63 | 1015.2 |
| 20260905225006 | 22 | 352 | 3.2 | 6.4 | 0.00 | 0.00 | 0.00 | 62 | 1015.2 |
| 20260905224515 | 22 | 11 | 1.6 | 6.4 | 0.00 | 0.00 | 0.00 | 62 | 1015.2 |
| 20260905224009 | 22 | 44 | 1.6 | 4.8 | 0.00 | 0.00 | 0.00 | 64 | 1015.2 |
| 20260905223510 | 22 | 74 | 1.6 | 4.8 | 0.00 | 0.00 | 0.00 | 63 | 1015.2 |
| 20260905223030 | 22 | 56 | 1.6 | 8.0 | 0.00 | 0.00 | 0.00 | 63 | 1015.2 |
| 20260905222516 | 22 | 62 | 1.6 | 8.0 | 0.00 | 0.00 | 0.00 | 63 | 1015.2 |
| 20260905222012 | 23 | 53 | 1.6 | 6.4 | 0.00 | 0.00 | 0.00 | 62 | 1015.2 |